Terminal Aerodrome Forecast
Issued by NWS Columbia, SC

Home | Current Version | Previous Version | Text Only | Print | Product List | Glossary On
Versions: 1 2 3 4 5 6 7 8 9 10 11 12 13 14 15 16 17 18 19 20 21 22 23 24 25 26 27 28 29 30 31 32 33 34 35 36 37 38 39 40 41 42 43 44 45 46 47 48 49 50
000
FTUS42 KCAE 180256 AAA
TAFAGS
TAF AMD
KAGS 180256Z 1803/1824 21005KT P6SM BKN250
     FM180800 24006KT 5SM BR SCT015 BKN030
     FM181000 24007KT 3SM BR OVC005
     FM181500 27013G20KT P6SM SCT008 BKN020
     FM181800 28012G22KT P6SM SCT030 BKN080=

USA.gov is the U.S. government's official web portal to all federal, state and local government web resources and services.